Torna al catalogo

COSMOS 2251 DEB

AttivoLEO
NORAD 35987·DEBRIS·🇷🇺 Russia

Lanciato Jun 16, 1993 da Plesetsk Cosmodrome

Loading…

Prossimi Passaggi (prossime 24 ore)

TLE

AggiornatoSource: Space-Track

Epoca: Sep 13, 2026, 11:00 UTC

1 35987U 93036AWD 26256.45865287  .00001592  00000-0  46185-3 0  9993
2 35987  73.9987 174.5779 0049580 235.3376 124.3103 14.44532480650305

Traccia COSMOS 2251 DEB in tempo reale con AllMySat

Download on the App Store